Darstellungsparameter: Aktuell verwendete Einstellungen:
Skalierung der Graphiken ... ?
xyx+y,   Skalierungsfaktor:      Skalierung: Modus: x, Faktor: 1
Darstellungszeitraum ... ?
Vom - - bis: - -   Zeitraum: 07.09.2010 - 07.09.2010
Min/Max/Avg-Anzeige ... ?
Zeige MMA aktuell
Zeige MMA Monat
Zeige MMA alles
Zeige --A aktuell
Zeige --A Monat
Zeige --A alles
Keine MMA-Anzeige
MMA:
Average (ber die Originaldaten)
MMA-Basis: 07.09.2010 - 07.09.2010
Quicknavigation für Darstellung... ?
Tage:      1T, 2T, 3T, 5T -1T -2T -3T -5T +1T +2T +3T +5T
Wochen: 1W, 2W, 3W -1W -2W -3W +1W +2W +3W
Monate: 1M, 3M, 6M -1M -3M -6M +1M +3M +6M
Jahre:    1J, 3J, 5J, 10J -1J -3J -5J -10J +1J +3J +5J +10J
Nutze für die Darstellung ... ?
Originaldaten oder Mittelwerte auf ...
Stundenbasis Tagesbasis Wochenbasis
Monatsbasis Jahresbasis      Datenbasis: Original-Daten
Darstellen als:
Statistik (Auto) Statistik J:M      Darstellung:
Zur Graphik,    zurück zur Übersicht aller Sensoren.
 
Tabellarische Datenbersicht: ?
 
Sensor: Nr:Datum:Temp:Abs-Feuchte:Windchill:Wind:
Aussen-T/F 1 07-09-2010 00:05:03 15.2 C 5.71 g/m*3 15.2 C 0 km/h
2 07-09-2010 00:17:03 15.4 C 5.52 g/m*3 15.4 C 0 km/h
3 07-09-2010 00:29:03 15.4 C 5.52 g/m*3 15.4 C 0 km/h
4 07-09-2010 00:41:03 15.5 C 5.42 g/m*3 15.5 C 0 km/h
5 07-09-2010 00:53:03 15.4 C 5.39 g/m*3 15.4 C 0 km/h
6 07-09-2010 01:05:03 15.4 C 5.52 g/m*3 15.4 C 0 km/h
7 07-09-2010 01:17:04 15.4 C 5.39 g/m*3 15.4 C 0 km/h
8 07-09-2010 01:29:04 15.4 C 5.39 g/m*3 15.4 C 0 km/h
9 07-09-2010 01:41:04 15.4 C 5.39 g/m*3 15.4 C 0 km/h
10 07-09-2010 01:53:04 15.5 C 5.29 g/m*3 15.5 C 0 km/h
11 07-09-2010 02:05:04 15.5 C 5.29 g/m*3 15.5 C 0 km/h
12 07-09-2010 02:17:04 15.5 C 5.29 g/m*3 15.5 C 0 km/h
13 07-09-2010 02:29:04 15.5 C 5.55 g/m*3 15.5 C 0 km/h
14 07-09-2010 02:41:04 15.4 C 5.39 g/m*3 15.4 C 0 km/h
15 07-09-2010 02:53:04 15.4 C 5.39 g/m*3 15.4 C 0 km/h
16 07-09-2010 03:05:04 15.4 C 5.52 g/m*3 15.4 C 0 km/h
17 07-09-2010 03:17:04 15.4 C 5.26 g/m*3 15.4 C 0 km/h
18 07-09-2010 03:29:04 14.8 C 5.7 g/m*3 14.8 C 0 km/h
19 07-09-2010 03:41:04 13.3 C 6.47 g/m*3 13.3 C 0 km/h
20 07-09-2010 03:53:04 12.8 C 6.94 g/m*3 12.8 C 0 km/h
21 07-09-2010 04:05:04 13.1 C 6.85 g/m*3 13.1 C 0 km/h
22 07-09-2010 04:17:04 13.4 C 6.97 g/m*3 13.4 C 0 km/h
23 07-09-2010 04:29:04 13.1 C 6.62 g/m*3 13.1 C 0 km/h
24 07-09-2010 04:41:04 12.8 C 7.28 g/m*3 12.8 C 0 km/h
25 07-09-2010 04:53:04 12.9 C 7.33 g/m*3 12.9 C 0 km/h
Sensor: Nr:Datum:Temp:Abs-Feuchte:Windchill:Wind:
Aussen-T/F 26 07-09-2010 05:05:04 12.9 C 7.21 g/m*3 12.9 C 0 km/h
27 07-09-2010 05:17:04 13 C 7.26 g/m*3 13 C 0 km/h
28 07-09-2010 05:29:05 13 C 7.03 g/m*3 13 C 0 km/h
29 07-09-2010 05:41:05 13.2 C 6.77 g/m*3 13.2 C 0 km/h
30 07-09-2010 05:53:05 12.8 C 7.28 g/m*3 12.8 C 0 km/h
31 07-09-2010 06:05:05 12.5 C 7.26 g/m*3 12.5 C 0 km/h
32 07-09-2010 06:17:05 12.3 C 7.38 g/m*3 12.3 C 0 km/h
33 07-09-2010 06:29:05 12.4 C 7.1 g/m*3 12.4 C 0 km/h
34 07-09-2010 06:41:05 12.6 C 6.75 g/m*3 12.6 C 0 km/h
35 07-09-2010 06:53:05 12.7 C 6.68 g/m*3 12.7 C 0 km/h
36 07-09-2010 07:05:05 12.4 C 6.66 g/m*3 12.4 C 0 km/h
37 07-09-2010 07:17:05 12.2 C 7.01 g/m*3 12.2 C 0 km/h
38 07-09-2010 07:29:05 12.1 C 6.97 g/m*3 12.1 C 0 km/h
39 07-09-2010 07:41:05 12 C 7.35 g/m*3 12 C 0 km/h
40 07-09-2010 07:53:01 11.9 C 7.41 g/m*3 11.9 C 0 km/h
41 07-09-2010 08:05:02 11.7 C 7.74 g/m*3 11.7 C 0 km/h
42 07-09-2010 08:17:02 11.6 C 8.11 g/m*3 11.6 C 0 km/h
43 07-09-2010 08:29:02 11.7 C 8.37 g/m*3 11.7 C 0 km/h
44 07-09-2010 08:41:02 11.4 C 8.11 g/m*3 11.4 C 0 km/h
45 07-09-2010 08:53:01 11.4 C 8.21 g/m*3 11.4 C 0 km/h
46 07-09-2010 09:05:02 11.4 C 8.21 g/m*3 11.4 C 0 km/h
47 07-09-2010 09:17:02 11.4 C 8.21 g/m*3 11.4 C 0 km/h
48 07-09-2010 09:29:02 11.5 C 8.47 g/m*3 11.5 C 0 km/h
49 07-09-2010 09:41:01 11.5 C 8.47 g/m*3 11.5 C 0 km/h
50 07-09-2010 09:53:02 11.5 C 8.68 g/m*3 11.5 C 0 km/h
Sensor: Nr:Datum:Temp:Abs-Feuchte:Windchill:Wind:
Aussen-T/F 51 07-09-2010 10:05:01 11.4 C 8.72 g/m*3 11.4 C 0 km/h
52 07-09-2010 10:17:02 11.4 C 8.83 g/m*3 11.4 C 0 km/h
53 07-09-2010 10:29:02 11.5 C 8.88 g/m*3 11.5 C 0 km/h
54 07-09-2010 10:41:01 11.4 C 8.93 g/m*3 11.4 C 0 km/h
55 07-09-2010 10:53:02 11.6 C 9.04 g/m*3 11.6 C 0 km/h
56 07-09-2010 11:05:01 11.6 C 9.15 g/m*3 11.6 C 0 km/h
57 07-09-2010 11:17:01 11.5 C 9.09 g/m*3 11.5 C 0 km/h
58 07-09-2010 11:29:01 11.2 C 8.92 g/m*3 11.2 C 0 km/h
59 07-09-2010 11:41:02 11.7 C 9.41 g/m*3 11.7 C 0 km/h
60 07-09-2010 11:53:02 12.2 C 9.5 g/m*3 12.2 C 0 km/h
61 07-09-2010 12:05:02 12 C 9.38 g/m*3 12 C 0 km/h
62 07-09-2010 12:17:02 12.4 C 9.62 g/m*3 12.4 C 0 km/h
63 07-09-2010 12:29:02 12.4 C 9.4 g/m*3 12.4 C 0 km/h
64 07-09-2010 12:41:02 12.5 C 9.46 g/m*3 12.5 C 0 km/h
65 07-09-2010 12:53:02 12.8 C 9.63 g/m*3 12.8 C 0 km/h
66 07-09-2010 13:05:02 12.7 C 9.35 g/m*3 12.7 C 0 km/h
67 07-09-2010 13:17:02 12.8 C 9.41 g/m*3 12.8 C 0 km/h
68 07-09-2010 13:29:02 12.8 C 9.3 g/m*3 12.8 C 0 km/h
69 07-09-2010 13:41:02 12.7 C 9.13 g/m*3 12.7 C 0 km/h
70 07-09-2010 13:53:01 12.9 C 9.35 g/m*3 12.9 C 0 km/h
71 07-09-2010 14:05:01 12.9 C 9.35 g/m*3 12.9 C 0 km/h
72 07-09-2010 14:17:01 13.1 C 9.36 g/m*3 13.1 C 0 km/h
73 07-09-2010 14:29:01 13.3 C 9.47 g/m*3 13.3 C 0 km/h
74 07-09-2010 14:41:01 13.4 C 9.3 g/m*3 13.4 C 0 km/h
75 07-09-2010 14:53:01 14.1 C 9.34 g/m*3 14.1 C 0 km/h
Sensor: Nr:Datum:Temp:Abs-Feuchte:Windchill:Wind:
Aussen-T/F 76 07-09-2010 15:05:01 14.4 C 9.39 g/m*3 14.4 C 0 km/h
77 07-09-2010 15:17:02 14.4 C 8.9 g/m*3 14.4 C 0 km/h
78 07-09-2010 15:29:02 14.7 C 9.07 g/m*3 14.7 C 0 km/h
79 07-09-2010 15:41:01 14.7 C 9.07 g/m*3 14.7 C 0 km/h
80 07-09-2010 15:53:03 14.7 C 9.19 g/m*3 14.7 C 0 km/h
81 07-09-2010 16:05:02 15.3 C 9.27 g/m*3 15.3 C 0 km/h
82 07-09-2010 16:17:02 15.6 C 9.04 g/m*3 15.6 C 0 km/h
83 07-09-2010 16:29:02 15.7 C 9.1 g/m*3 15.7 C 0 km/h
84 07-09-2010 16:41:02 15.6 C 9.04 g/m*3 15.6 C 0 km/h
85 07-09-2010 16:53:02 15.4 C 9.07 g/m*3 15.4 C 0 km/h
86 07-09-2010 17:05:02 15.2 C 8.96 g/m*3 15.2 C 0 km/h
87 07-09-2010 17:17:02 14.9 C 8.92 g/m*3 14.9 C 0 km/h
88 07-09-2010 17:29:02 14.8 C 9.12 g/m*3 14.8 C 0 km/h
89 07-09-2010 17:41:02 14.8 C 9.12 g/m*3 14.8 C 0 km/h
90 07-09-2010 17:53:02 14.7 C 9.19 g/m*3 14.7 C 0 km/h
91 07-09-2010 18:05:02 14.1 C 8.86 g/m*3 14.1 C 0 km/h
92 07-09-2010 18:17:01 14 C 9.05 g/m*3 14 C 0 km/h
93 07-09-2010 18:29:01 14 C 9.05 g/m*3 14 C 0 km/h
94 07-09-2010 18:41:02 13.9 C 9.23 g/m*3 13.9 C 0 km/h
95 07-09-2010 18:53:02 13.9 C 9.23 g/m*3 13.9 C 0 km/h
96 07-09-2010 19:05:02 13.9 C 9.35 g/m*3 13.9 C 0 km/h
97 07-09-2010 19:17:01 13.8 C 9.29 g/m*3 13.8 C 0 km/h
98 07-09-2010 19:29:01 13.8 C 9.41 g/m*3 13.8 C 0 km/h
99 07-09-2010 19:41:02 13.7 C 9.35 g/m*3 13.7 C 0 km/h
100 07-09-2010 19:53:02 13.7 C 9.47 g/m*3 13.7 C 0 km/h
Sensor: Nr:Datum:Temp:Abs-Feuchte:Windchill:Wind:
Aussen-T/F 101 07-09-2010 20:05:02 13.5 C 9.47 g/m*3 13.5 C 0 km/h
102 07-09-2010 20:17:02 13.3 C 9.47 g/m*3 13.3 C 0 km/h
103 07-09-2010 20:29:02 13.2 C 9.53 g/m*3 13.2 C 0 km/h
104 07-09-2010 20:41:02 13.1 C 9.59 g/m*3 13.1 C 0 km/h
105 07-09-2010 20:53:02 13.1 C 9.7 g/m*3 13.1 C 0 km/h
106 07-09-2010 21:05:02 13 C 9.75 g/m*3 13 C 0 km/h
107 07-09-2010 21:17:02 13 C 9.87 g/m*3 13 C 0 km/h
108 07-09-2010 21:29:02 13 C 9.87 g/m*3 13 C 0 km/h
109 07-09-2010 21:41:02 13 C 9.98 g/m*3 13 C 0 km/h
110 07-09-2010 21:53:02 12.8 C 9.97 g/m*3 12.8 C 0 km/h
111 07-09-2010 22:05:02 12.9 C 10.03 g/m*3 12.9 C 0 km/h
112 07-09-2010 22:18:05 12.9 C 10.03 g/m*3 12.9 C 0 km/h
113 07-09-2010 22:30:05 12.9 C 10.03 g/m*3 12.9 C 0 km/h
114 07-09-2010 22:42:05 12.8 C 9.97 g/m*3 12.8 C 0 km/h
115 07-09-2010 22:54:05 12.8 C 10.08 g/m*3 12.8 C 0 km/h
116 07-09-2010 23:06:05 12.9 C 10.14 g/m*3 12.9 C 0 km/h
117 07-09-2010 23:18:05 12.9 C 10.14 g/m*3 12.9 C 0 km/h
118 07-09-2010 23:30:05 12.8 C 10.08 g/m*3 12.8 C 0 km/h
119 07-09-2010 23:42:05 13 C 10.21 g/m*3 13 C 0 km/h
120 07-09-2010 23:54:05 13 C 10.21 g/m*3 13 C 0 km/h

Legende:
   Min
   Max


Maximal/Minimal-Werte vom 07.09.2010 - 07.09.2010

Sensor Min Max Avg
Temp
(Aussen-T/F)
11.2 °C
07-09-2010  11:29:01
15.7 °C
07-09-2010  16:29:02
13.36 °C
Abs-Feuchte
(Aussen-T/F)
5.26 g/m*3
07-09-2010  03:17:04
10.21 g/m*3
07-09-2010  23:42:05
8.21 g/m*3
Windchill
(Aussen-T/F)
11.2 C
07-09-2010  11:29:01
15.7 C
07-09-2010  16:29:02
13.25 C

Die Daten stammen von einer Davis Vantage Pro 2 Wetter-Station und werden unter Linux mit der Software wview2wettercgi und aufbereitet. Alle Angaben erfolgen ohne Gewähr für ihre Vollständigkeit oder Richtigkeit.
Kontakt: Rainer Krienke krienke@uni-koblenz.de . Meine Webseiten an der Uni Koblenz oder privat.
Version: $Revision: 0.78 $